Regional Weather Roundup
Issued by NWS

Home | Current Version | Previous Version | Text Only | Print | Product List | Glossary On
Versions: 1 2 3 4 5 6 7 8 9 10 11 12 13 14 15 16 17 18 19 20 21 22 23 24 25 26 27
000
ASUS44 KLIX 221214
RWRLA
LOUISIANA WEATHER ROUNDUP
NATIONAL WEATHER SERVICE NEW ORLEANS LA
700 AM CDT THU JUN 22 2017

NOTE: "FAIR" INDICATES FEW OR NO CLOUDS BELOW 12,000 FEET WITH NO
      SIGNIFICANT WEATHER AND/OR OBSTRUCTIONS TO VISIBILITY.
      SKY/WX - SKY CONDITION AND SIGNIFICANT WEATHER.
      TMP - AIR TEMPERATURE.    DP   - DEWPOINT TEMPERATURE.
      RH  - RELATIVE HUMIDITY.  PRES - PRESSURE.
      HX  - HEAT INDEX.         WCI  - WIND CHILL INDEX.

*  THESE STATIONS ARE NOT NWS OR FAA STATIONS AND ARE NOT UNDER
   NWS QUALITY CONTROL.

LAZ040-048-061>063-065-066-069-221300-
SOUTHEAST LOUISIANA

CITY           SKY/WX    TMP DP  RH WIND       PRES   REMARKS
N.O. INTL ARPT PTSUNNY   80  76  87 SE18G28   29.76R
6HR MIN TEMP:  78; 6HR MAX TEMP:  80; 6HR PCP:  0.19;

N.O. LAKEFRONT MOSUNNY   81  76  84 S18       29.78R
6HR MIN TEMP:  80; 6HR MAX TEMP:  81;

N.O. DOWNTOWN*   N/A     81  76  84 S21G30      N/A
6HR MIN TEMP:  80; 6HR MAX TEMP:  81;

RESERVE*       CLOUDY    81  76  84 S15       29.75R
6HR MIN TEMP:  80; 6HR MAX TEMP:  81; 6HR PCP:  0.10;

SLIDELL        CLOUDY    80  76  87 SE13      29.79R
6HR MIN TEMP:  80; 6HR MAX TEMP:  81; 6HR PCP: TRACE;

BATON ROUGE    LGT RAIN  78  76  93 SE12G17   29.71R
6HR MIN TEMP:  77; 6HR MAX TEMP:  79; 6HR PCP:  0.06;

BOOTHVILLE     LGT RAIN  79  77  94 S29G37    29.82R FOG
6HR MIN TEMP:  79; 6HR MAX TEMP:  81; 6HR PCP:  0.06;

BELLE CHASSE   PTSUNNY   81  78  91 S22G31    29.77R
BOGALUSA*      PTSUNNY   80  74  80 SE10G17   29.81R
6HR MIN TEMP:  79; 6HR MAX TEMP:  81;

GALLIANO*      CLOUDY    80  74  82 S14G22    29.77R
6HR MIN TEMP:  80; 6HR MAX TEMP:  81;

NEW ROADS*       N/A     78  74  88 SE13G20   29.69R
6HR MIN TEMP:  77; 6HR MAX TEMP:  79; 6HR PCP:  0.05;

GONZALES*      DRIZZLE   79  76  88 SE10G21   29.71R
6HR MIN TEMP:  78; 6HR MAX TEMP:  80; 6HR PCP:  0.07;

HAMMOND*       CLOUDY    79  72  78 SE13G22   29.77R
HOUMA*         CLOUDY    81  77  89 SE17G23   29.75R
PORT FOURCHON* NOT AVBL

$$

LAZ041-044-053-054-221300-
SOUTHWEST LOUISIANA

CITY           SKY/WX    TMP DP  RH WIND       PRES   REMARKS
LAKE CHARLES   CLOUDY    79  32  18 S18G39    29.42S
6HR MIN TEMP:  77; 6HR MAX TEMP:  80; 6HR PCP:  0.23;

LAFAYETTE      CLOUDY    79  77  94 S15G23    29.64R
6HR MIN TEMP:  78; 6HR MAX TEMP:  80; 6HR PCP:  0.97;

PATTERSON      CLOUDY    81  76  84 S20G31    29.71R
6HR MIN TEMP:  79; 6HR MAX TEMP:  81;

SALT POINT       N/A     82  76  81 S8G22     29.68R
6HR MIN TEMP:  81; 6HR MAX TEMP:  82;

NEW IBERIA     LGT RAIN  79  77  94 S15G23    29.64R
CHENAULT AIRPK LGT RAIN  76  75  97 SE33G51   29.44F
6HR MIN TEMP:  76; 6HR MAX TEMP:  79; 6HR PCP:  0.20;


$$

LAZ027-028-221300-
CENTRAL LOUISIANA

CITY           SKY/WX    TMP DP  RH WIND       PRES   REMARKS
FORT POLK      CLOUDY    76  74  94 E13       29.54S
6HR MIN TEMP:  75; 6HR MAX TEMP:  76; 6HR PCP:  0.30;

ALEXANDRIA INT CLOUDY    76  74  93 E16G22    29.60S
6HR MIN TEMP:  75; 6HR MAX TEMP:  78; 6HR PCP:  0.01;

ALEXANDRIA     CLOUDY    76  75  97 MISG      29.64R
6HR MIN TEMP:  76; 6HR MAX TEMP:  76; 6HR PCP:  0.61;


$$

LAZ001-002-221300-
NORTHWEST LOUISIANA

CITY           SKY/WX    TMP DP  RH WIND       PRES   REMARKS
SHREVEPORT     LGT RAIN  76  75  97 NE16      29.63S FOG
6HR MIN TEMP:  75; 6HR MAX TEMP:  76; 6HR PCP:  0.11;

BARKSDALE AFB  LGT RAIN  75  75 100 NE7       29.64S
6HR MIN TEMP:  74; 6HR MAX TEMP:  75; 6HR PCP: TRACE;

DTN SHREVEPORT LGT RAIN  76  74  93 NE13      29.64F FOG
6HR MIN TEMP:  76; 6HR MAX TEMP:  76; 6HR PCP:  0.07;


$$

LAZ014-016-221300-
NORTHEAST LOUISIANA

CITY           SKY/WX    TMP DP  RH WIND       PRES   REMARKS
MONROE         CLOUDY    77  74  90 E9        29.71R
6HR MIN TEMP:  75; 6HR MAX TEMP:  77; 6HR PCP: TRACE;

TALLULAH       MOSUNNY   77  74  90 SE9       29.74S
6HR MIN TEMP:  75; 6HR MAX TEMP:  77;


$$





USA.gov is the U.S. government's official web portal to all federal, state and local government web resources and services.